Location: Ethel Rock
(53.4667°N, 4.5667°W)
Time: 05:16:17
(UTC+00:00)

Tsikada Rocket - Pass Details

Date: 24 October 2020
Orbit: 959 x 1008 km, 82.9° (Epoch: 25 November)

Event Time Altitude Azimuth Distance (km) Brightness Sun altitude
Exits shadow 04:31:21 48° 260° (W) 1,243 4.1 -23.0°
Maximum altitude 04:32:14 52° 288° (WNW) 1,192 4.1 -22.9°
Drops below altitude 10° 04:38:17 10° 4° (N) 2,722 6.5 -22.0°
Sets 04:40:54 0° 10° (N) 3,679 7.3 -21.6°
